Location: Dealu Mare
(46.0500°N, 22.8167°E)
Time: 20:30:16
(UTC+00:00)

GRACE-FO 1 - Pass Details

Date: 15 January 2026
Orbit: 448 x 461 km, 89.0° (Epoch: 10 February)

Event Time Altitude Azimuth Distance (km) Brightness Sun altitude
Rises 05:23:36 0° 177° (S) 2,446 8.5 -7.6°
Reaches altitude 10° 05:25:38 10° 177° (S) 1,581 7.5 -7.2°
Maximum altitude 05:29:03 87° 89° (E) 461 4.5 -6.7°
Drops below altitude 10° 05:32:32 10° 0° (N) 1,603 7.0 -6.1°
Sets 05:34:36 0° 0° (N) 2,485 7.9 -5.8°
